Location: Gensac
(43.2177°N, 1.1313°E)
Time: 00:48:14
(UTC+00:00)

Cosmos 372 Rocket - Pass Details

Date: 08 December 2025
Orbit: 734 x 761 km, 74.1° (Epoch: 17 January)

Event Time Altitude Azimuth Distance (km) Brightness Sun altitude
Exits shadow 04:33:53 53° 36° (NE) 899 4.4 -28.5°
Maximum altitude 04:34:30 58° 67° (ENE) 860 4.4 -28.3°
Drops below altitude 10° 04:39:28 10° 146° (SE) 2,231 6.9 -27.4°
Sets 04:41:51 0° 150° (SSE) 3,150 7.7 -27.0°
